Tracking 18852 objects as of 23-Nov-2017
HD Live streaming from Space Station
objects crossing your sky now

FENGYUN 1C DEB

Track FENGYUN 1C DEB now!
10-day predictions


NORAD ID: 30514
Int'l Code: 1999-025AJC
Perigee: 672.4 km
Apogee: 949.7 km
Inclination: 98.7 °
Period: 101.0 minutes
Semi major axis: 7182 km
RCS: 0.0192 m2 (small)
Launch date: May 10, 1999
Source: People's Republic of China (PRC)
Launch site: Taiyaun Space Center, China (TSC)

Note: This is SATELLITE DEBRIS
aabbcc
Your satellite tracking list
Your tracking list is empty




NASA's NSSDC Master Catalog

Two Line Element Set (TLE):
1 30514U 99025AJC 17326.30970834 +.00000428 +00000-0 +16216-3 0  9994
2 30514 098.7408 357.7648 0193022 088.3848 273.9430 14.26364515562195
Source of the keplerian elements: AFSPC